THORAD AGENA D DEB, 4676

Orbit data source: Space-Track

THORAD AGENA D DEB, 4676 is space debris in SSO originally from a launch on Wed, 08 Apr 1970 UTC launched from the Air Force Western Test Range (AFWTR). Debris objects in space refer to the collection of defunct objects orbiting the Earth. Examples of debris include non-operational satellites, rocket bodies, and fragments generated from explosions, collisions, or faulty payload assembly.

Loading next visibility...
Identifier
4676, 1970-025AZ
Orbit
SSO
Country
Flag of USUS
Related business
Manufacturer
Unknown
Mission
Spacecraft
Bus & Motor
Unknown
Mass
Unknown
Launch date (UTC)
1970-04-08 (56 years ago)
Launch vehicle
Unknown
Launch site
Air Force Western Test Range (AFWTR)
Object type
Payload
Rocket body
Debris
Shape & HBR
Unknown shape, 0.3 m
Radar Cross Section
Medium (>0.1 m² and <1 m²)

Expand to show TLE details & history
Last TLE update: 9 hours ago

TLE from 9 hours ago
0 THORAD AGENA D DEB
1  4676U 70025AZ  25300.08881031  .00000201  00000-0  35707-3 0  9994
2  4676 100.1324 332.8974 0004544 204.5682 179.0052 13.55506992742930
Epoch: 2025-10-27T02:07Z
TLE epoch observation values (Epoch: 2025-10-27T02:07:53.210Z)
Latitude
23.20549°
Longitude
-99.14138°
Altitude
1,058.131 km
Speed
7.323 km/s
True Right ascension
21h 54m 06s
True Declination
23° 05' 10"
Sunlit
Object was in daylight at epoch
Visualization orbit readout
Latitude
Unknown
Longitude
Unknown
Altitude
Unknown
Speed
Unknown
Apparent Right ascension
Unknown
Apparent Declination
Unknown
Sunlit
N/A
Visualization observer readout
Local Sidereal Time
06:07:03
Azimuth
Unknown
Elevation
Unknown
Doppler factor
Unknown
Orbital elements
Apogee altitude
1,052.758 km
Perigee altitude
1,046.007 km
Semi-major axis
7,427.52 km
Eccentricity
0.00045
Inclination
100.1324°
RAAN
332.8974°
Arg. of periapsis
204.5682°
True anomaly
179.0061°
Mean anomaly
179.0052°
Eccentric anomaly
179.00565°
Mean motion
3.39061 °/min
Orbital period
106.18 mins
BSTAR
0.00035707
Loading maneuver chart data...
Computing Atmospheric mass density...

Documentation

Showing up to 5 results
|